Tracking 19717 objects as of 25-Jun-2019
HD Live streaming from Space Station
objects crossing your sky now

FENGYUN 1C DEB

Track FENGYUN 1C DEB now!
10-day predictions


NORAD ID: 32089
Int'l Code: 1999-025CQF
Perigee: 785.5 km
Apogee: 956.2 km
Inclination: 98.8 °
Period: 102.2 minutes
Semi major axis: 7241 km
RCS: 0.0109 m2 (small)
Launch date: May 10, 1999
Source: People's Republic of China (PRC)
Launch site: Taiyaun Space Center, China (TSC)

Note: This is SATELLITE DEBRIS
aabbcc
Your satellite tracking list
Your tracking list is empty




NASA's NSSDC Master Catalog

Two Line Element Set (TLE):
1 32089U 99025CQF 19175.35393739  .00000023  00000-0  36503-4 0  9998
2 32089  98.8306 217.6183 0117852 344.6993  15.0625 14.08743441612990
Source of the keplerian elements: AFSPC